Wautoma, WI

11:33 PM CDT on June 23, 2017 (GMT -0500)
Wautoma

Weather History for KY50 - April, 2014

Change the Weather History Date:

Saturday, April 12, 2014

  Actual Average (KPCZ) Record (KPCZ)
Temperature  
Mean Temperature 40 °F -  
Max Temperature 45 °F 54 °F 84 °F (1977)
Min Temperature 36 °F 32 °F 18 °F (1957)
Degree Days  
Heating Degree Days 24    
Moisture  
Dew Point 39 °F    
Average Humidity 92    
Maximum Humidity 100    
Minimum Humidity 54    
Precipitation  
Precipitation 1.52 in - - ()
Sea Level Pressure  
Sea Level Pressure 29.82 in    
Wind  
Wind Speed 7 mph (NE)    
Max Wind Speed 17 mph    
Max Gust Speed 24 mph    
Visibility 3 miles    
Events Fog , Rain    
Averages and records for this station are not official NWS values.
T = Trace of Precipitation, MM = Missing Value Source: NWS Daily Summary

Daily Weather History Graph

Daily Weather History Graph

Search for Another Location

Airport or City:

Trip Planner

Search our weather history database for the weather conditions in past years. The results will help you decide how hot, cold, wet, or windy it might be!

Date:

Astronomy

Apr. 12, 2014 Rise Set
Actual Time 6:19 AM CDT 7:37 PM CDT
Civil Twilight 5:49 AM CDT 8:07 PM CDT
Nautical Twilight 5:13 AM CDT 8:43 PM CDT
Astronomical Twilight 4:35 AM CDT 9:21 PM CDT
Moon 5:11 PM CDT (4/12) 4:51 AM CDT (4/12)
Length of Visible Light 14h 18m
Length of Day
13h 18m
Waxing Gibbous, 93% of the Moon is Illuminated
Apr 12
Waxing Gibbous
Apr 15
Full
Apr 22
Last Quarter
Apr 29
New
May 6
First Quarter

Hourly Weather History & Observations

Time (CDT) Temp. Windchill Dew Point Humidity Pressure Visibility Wind Dir Wind Speed Gust Speed Precip Events Conditions
12:56 AM 39.2 °F - 37.4 °F 93% 30.01 in 10.0 mi Calm Calm - N/A   Clear
1:56 AM 38.8 °F - 36.9 °F 93% 30.02 in 10.0 mi Calm Calm - N/A   Mostly Cloudy
2:56 AM 38.8 °F 36.5 °F 36.9 °F 93% 30.00 in 10.0 mi NE 3.5 mph - N/A   Scattered Clouds
3:56 AM 38.8 °F 36.5 °F 36.9 °F 93% 30.00 in 10.0 mi East 3.5 mph - N/A   Overcast
4:56 AM 36.9 °F - 34.9 °F 93% 29.97 in 10.0 mi Calm Calm - N/A   Partly Cloudy
5:56 AM 41.9 °F 40.0 °F 32.9 °F 70% 29.94 in 10.0 mi Variable 3.5 mph - N/A   Clear
6:56 AM 43.9 °F 41.3 °F 32.0 °F 63% 29.97 in 10.0 mi NNE 4.6 mph - N/A   Partly Cloudy
7:56 AM 45.9 °F 43.6 °F 30.0 °F 54% 29.96 in 10.0 mi Variable 4.6 mph - N/A   Scattered Clouds
8:56 AM 43.9 °F 39.3 °F 36.9 °F 76% 29.92 in 10.0 mi NE 8.1 mph - 0.01 in Rain Light Rain
9:56 AM 43.0 °F 40.3 °F 36.9 °F 79% 29.94 in 10.0 mi East 4.6 mph - 0.01 in   Overcast
10:56 AM 41.9 °F 35.9 °F 38.8 °F 89% 29.91 in 2.0 mi NE 10.4 mph - 0.07 in Rain Light Rain
11:05 AM 42.8 °F 36.6 °F 39.2 °F 87% 29.90 in 6.0 mi ENE 11.5 mph - 0.00 in Rain Light Rain
11:44 AM 42.8 °F 36.2 °F 39.2 °F 87% 29.96 in 2.5 mi NNW 12.7 mph - 0.04 in Rain Rain
11:56 AM 41.9 °F 35.4 °F 39.9 °F 93% 29.94 in 2.5 mi NNE 11.5 mph 20.7 mph 0.07 in Rain Rain
12:05 PM 42.8 °F 35.4 °F 39.2 °F 87% 29.91 in 1.5 mi ENE 15.0 mph - 0.02 in Rain Rain
12:12 PM 42.8 °F 35.8 °F 39.2 °F 87% 29.91 in 1.2 mi East 13.8 mph - 0.06 in Rain Rain
12:27 PM 42.8 °F 35.4 °F 39.2 °F 87% 29.88 in 1.5 mi East 15.0 mph 21.9 mph 0.11 in Rain Light Rain
12:36 PM 41.0 °F 32.5 °F 39.2 °F 93% 29.84 in 1.0 mi ESE 17.3 mph - 0.16 in Rain Light Rain
12:43 PM 41.0 °F 32.8 °F 39.2 °F 93% 29.81 in 1.5 mi East 16.1 mph 24.2 mph 0.18 in Rain Light Rain
12:56 PM 42.8 °F 35.4 °F 39.2 °F 87% 29.81 in 1.8 mi East 15.0 mph 23.0 mph N/A Rain Light Rain
1:07 PM 41.0 °F 34.3 °F 39.2 °F 93% 29.81 in 1.5 mi ENE 11.5 mph 24.2 mph 0.04 in Rain Light Rain
1:16 PM 42.8 °F 36.6 °F 39.2 °F 87% 29.81 in 2.5 mi East 11.5 mph - 0.06 in Rain Light Rain
1:21 PM 42.8 °F 34.8 °F 39.2 °F 87% 29.78 in 1.0 mi East 17.3 mph 21.9 mph 0.22 in Rain Rain
1:23 PM 41.0 °F 34.7 °F 39.2 °F 93% 29.80 in 0.8 mi ENE 10.4 mph 21.9 mph 0.25 in Rain Heavy Rain
1:30 PM 41.0 °F 36.4 °F 39.2 °F 93% 29.82 in 0.5 mi NE 6.9 mph - 0.27 in Fog , Rain Rain
1:33 PM 42.8 °F 38.6 °F 39.2 °F 87% 29.82 in 1.0 mi East 6.9 mph - 0.31 in Rain Rain
1:38 PM 42.8 °F 38.0 °F 39.2 °F 87% 29.81 in 0.8 mi East 8.1 mph - 0.37 in Rain Heavy Rain
1:56 PM 41.9 °F 35.9 °F 41.0 °F 97% 29.83 in 1.0 mi NNE 10.4 mph - 0.54 in Rain Heavy Rain
2:01 PM 42.8 °F 37.5 °F 41.0 °F 93% 29.80 in 1.0 mi East 9.2 mph - 0.02 in Rain Rain
2:15 PM 42.8 °F 37.0 °F 41.0 °F 93% 29.81 in 1.5 mi NNE 10.4 mph - 0.13 in Rain Light Rain
2:19 PM 42.8 °F 37.0 °F 41.0 °F 93% 29.80 in 2.0 mi East 10.4 mph - 0.14 in Rain Rain
2:25 PM 42.8 °F 38.0 °F 41.0 °F 93% 29.80 in 1.8 mi East 8.1 mph - 0.19 in Rain Rain
2:31 PM 42.8 °F 37.5 °F 41.0 °F 93% 29.80 in 1.0 mi ENE 9.2 mph - 0.25 in Rain Heavy Rain
2:37 PM 42.8 °F 37.0 °F 41.0 °F 93% 29.78 in 0.8 mi ENE 10.4 mph - 0.33 in Rain Heavy Rain
2:47 PM 42.8 °F 36.2 °F 41.0 °F 93% 29.77 in 1.0 mi NE 12.7 mph - 0.39 in Rain Rain
2:56 PM 41.9 °F 36.3 °F 41.0 °F 97% 29.81 in 1.2 mi NE 9.2 mph - 0.44 in Rain Heavy Rain
3:00 PM 42.8 °F 37.0 °F 41.0 °F 93% 29.78 in 0.8 mi NE 10.4 mph - 0.06 in Rain Heavy Rain
3:10 PM 42.8 °F 38.0 °F 41.0 °F 93% 29.79 in 1.2 mi East 8.1 mph - 0.12 in Rain Rain
3:18 PM 42.8 °F 37.5 °F 41.0 °F 93% 29.79 in 1.2 mi NNE 9.2 mph - 0.16 in Rain Light Rain
3:28 PM 41.0 °F 35.2 °F 41.0 °F 100% 29.77 in 1.5 mi NE 9.2 mph - 0.20 in Rain Rain
3:36 PM 41.0 °F 35.8 °F 41.0 °F 100% 29.79 in 1.0 mi NNE 8.1 mph - 0.24 in Rain Rain
3:42 PM 41.0 °F 34.7 °F 41.0 °F 100% 29.78 in 1.5 mi NNE 10.4 mph - 0.25 in Rain Light Rain
3:56 PM 41.0 °F 35.8 °F 39.2 °F 93% 29.77 in 0.2 mi NE 8.1 mph - N/A Fog , Rain Heavy Rain
4:05 PM 41.0 °F 35.8 °F 39.2 °F 93% 29.76 in 0.8 mi ENE 8.1 mph - 0.06 in Rain Light Rain
4:10 PM 41.0 °F 37.1 °F 39.2 °F 93% 29.78 in 1.2 mi NNE 5.8 mph - 0.07 in Rain Rain
4:16 PM 41.0 °F 35.8 °F 39.2 °F 93% 29.76 in 0.8 mi ENE 8.1 mph - 0.15 in Rain Heavy Rain
4:25 PM 41.0 °F 34.3 °F 39.2 °F 93% 29.75 in 1.0 mi NE 11.5 mph - 0.20 in Rain Light Rain
4:29 PM 41.0 °F 34.7 °F 39.2 °F 93% 29.76 in 1.5 mi NNE 10.4 mph - 0.21 in Rain Rain
4:56 PM 41.0 °F 36.4 °F 39.9 °F 96% 29.78 in 1.0 mi NE 6.9 mph - 0.35 in Rain Heavy Rain
5:04 PM 41.0 °F 35.8 °F 39.2 °F 93% 29.77 in 1.5 mi NE 8.1 mph - 0.01 in Rain Rain
5:11 PM 41.0 °F 35.8 °F 39.2 °F 93% 29.77 in 2.5 mi NE 8.1 mph - 0.01 in Rain Light Rain
5:18 PM 41.0 °F 35.8 °F 39.2 °F 93% 29.77 in 4.0 mi NE 8.1 mph - 0.01 in Rain Light Rain
5:56 PM 41.9 °F 35.9 °F 41.0 °F 97% 29.75 in 4.0 mi NE 10.4 mph - 0.01 in   Overcast
6:56 PM 41.9 °F 38.2 °F 41.0 °F 97% 29.78 in 4.0 mi NE 5.8 mph - N/A   Overcast
7:56 PM 41.9 °F 36.3 °F 41.0 °F 97% 29.77 in 7.0 mi NE 9.2 mph - N/A   Overcast
8:56 PM 41.0 °F 35.8 °F 39.9 °F 96% 29.75 in 6.0 mi NE 8.1 mph - 0.00 in Rain Light Rain
9:56 PM 42.8 °F 40.1 °F 41.0 °F 93% 29.78 in 4.0 mi ENE 4.6 mph - N/A Rain Light Rain
10:19 PM 41.0 °F 34.7 °F 41.0 °F 100% 29.73 in 3.0 mi NE 10.4 mph - 0.01 in Rain Light Rain
10:33 PM 41.0 °F 33.9 °F 41.0 °F 100% 29.70 in 2.5 mi NE 12.7 mph - 0.02 in Rain Light Rain
10:48 PM 41.0 °F 35.2 °F 41.0 °F 100% 29.71 in 1.5 mi NE 9.2 mph - 0.02 in   Overcast
10:56 PM 41.0 °F 34.3 °F 41.0 °F 100% 29.71 in 1.2 mi NE 11.5 mph - 0.02 in   Overcast
11:06 PM 41.0 °F 33.9 °F 41.0 °F 100% 29.70 in 0.8 mi NE 12.7 mph 17.3 mph N/A   Overcast
11:23 PM 41.0 °F 34.7 °F 41.0 °F 100% 29.71 in 1.0 mi NE 10.4 mph - N/A   Overcast
11:33 PM 41.0 °F 33.9 °F 41.0 °F 100% 29.70 in 1.2 mi NE 12.7 mph - N/A   Overcast
11:48 PM 41.0 °F 35.2 °F 41.0 °F 100% 29.72 in 1.8 mi ENE 9.2 mph - N/A   Overcast
11:56 PM 41.0 °F 35.2 °F 41.0 °F 100% 29.75 in 2.0 mi East 9.2 mph - N/A   Overcast